Terug naar catalogus

COSMOS 1275 DEB

ActiefPO
NORAD 42158·DEBRIS·🇷🇺 Russia

Gelanceerd Jun 4, 1981 vanaf Plesetsk Cosmodrome

Loading…

Volgende Passages (komende 24 uur)

TLE

VersSource: Space-Track

Epoch: Sep 13, 2026, 08:19 UTC

1 42158U 81053RW  26256.34687677  .00000991  00000-0  86995-3 0  9995
2 42158  83.0046 116.2102 0099426 159.3278 326.7424 13.82305931643579

Volg COSMOS 1275 DEB in realtime met AllMySat

Download on the App Store